Le nostre stazioni meteo in Italia

Pubblicità
Il mio iltempo24.it
Grazzanise, Italia (16253): Temperatura & dewpoint: 10.07.2018 20:00:00 - 16.07.2018 20:00:00 (CEST)Grazzanise, Italia (16253): velocità del vento: 10.07.2018 20:00:00 - 16.07.2018 20:00:00 (CEST)Grazzanise, Italia (16253): direzione del vento: 10.07.2018 20:00:00 - 16.07.2018 20:00:00 (CEST)Grazzanise, Italia (16253): reduced air pressure: 10.07.2018 20:00:00 - 16.07.2018 20:00:00 (CEST)Grazzanise, Italia (16253): visibility: 10.07.2018 20:00:00 - 16.07.2018 20:00:00 (CEST)Grazzanise, Italia (16253): ore di luce: 10.07.2018 20:00:00 - 16.07.2018 20:00:00 (CEST)
Data & Tempo tt [°C] td [°C] ff [km/h] ff [kn] dd ppp [hPa] vv [km] sd [min]
16.07.2018 20:00:00 28,0 25,2 8 4 O 1013,2 15 0
16.07.2018 19:00:00 29,0 25,0 13 7 SE - 10 -
16.07.2018 18:00:00 28,0 27,0 18 10 SO - 10 -
16.07.2018 17:00:00 28,4 25,6 22 12 OSO 1016,4 15 0
16.07.2018 16:00:00 29,0 23,0 13 7 O - 10 -
16.07.2018 15:00:00 29,0 26,0 24 13 OSO - 10 -
16.07.2018 14:00:00 32,0 26,0 24 13 OSO - 10 -
16.07.2018 13:00:00 32,0 28,0 18 10 OSO - 10 -
16.07.2018 12:00:00 32,0 24,0 9 5 S - 8 -
16.07.2018 11:00:00 30,4 25,2 5 3 ESE 1015,1 8 60
16.07.2018 10:00:00 29,0 26,0 4 2 - - 8 -
16.07.2018 09:00:00 28,0 25,0 11 6 E - 8 -
16.07.2018 08:00:00 25,0 22,3 8 4 ENE 1015,2 8 0
16.07.2018 07:00:00 20,0 17,0 4 2 N - 5 -
16.07.2018 06:00:00 21,0 19,0 8 4 N - 6 -
16.07.2018 05:00:00 21,0 19,3 5 3 NE 1013,8 15 -
16.07.2018 04:00:00 22,0 20,0 4 2 NE - 10 -
16.07.2018 03:00:00 24,0 22,0 4 2 E - 10 -
16.07.2018 02:00:00 24,0 22,3 4 2 E 1015,0 15 -
16.07.2018 01:00:00 24,0 23,0 4 2 ESE - 10 -
16.07.2018 00:00:00 25,0 23,0 4 2 ESE - 10 -
15.07.2018 23:00:00 25,0 23,6 4 2 OSO 1014,6 15 -
15.07.2018 22:00:00 25,0 24,0 8 4 SO - 10 -
15.07.2018 21:00:00 26,0 25,0 8 4 OSO - 10 -
15.07.2018 20:00:00 28,0 25,2 11 6 OSO 1013,6 20 48
15.07.2018 19:00:00 30,0 25,0 16 9 O - 10 -
15.07.2018 18:00:00 30,0 23,0 21 11 OSO - 10 -
15.07.2018 17:00:00 30,6 20,8 15 8 O 1013,3 13 60
15.07.2018 16:00:00 32,0 21,0 22 12 OSO - 10 -
15.07.2018 15:00:00 33,0 22,0 16 9 OSO - 10 -
15.07.2018 14:00:00 32,8 21,7 16 9 OSO 1014,0 10 60
15.07.2018 13:00:00 33,0 22,0 15 8 OSO - 10 -
15.07.2018 12:00:00 31,0 23,0 8 4 O - 10 -
15.07.2018 11:00:00 31,4 23,5 4 2 OSO 1014,0 10 -
15.07.2018 10:00:00 29,0 25,0 5 3 O - 8 -
15.07.2018 09:00:00 27,0 25,0 4 2 O - 7 -
15.07.2018 08:00:00 25,4 22,7 2 1 NNE 1013,4 7 48
15.07.2018 07:00:00 23,0 20,0 0 0 N - 10 -
15.07.2018 06:00:00 22,0 19,0 0 0 N - 10 -
15.07.2018 05:00:00 22,0 19,4 0 0 N 1013,4 12 0
15.07.2018 04:00:00 22,0 20,0 0 0 N - 10 -
15.07.2018 03:00:00 24,0 22,0 4 2 O - 10 -
15.07.2018 02:00:00 24,6 22,9 5 3 NNO 1014,3 12 0
15.07.2018 01:00:00 25,0 24,0 5 3 ENE - 10 -
15.07.2018 00:00:00 25,0 24,0 5 3 E - 10 -
14.07.2018 23:00:00 25,4 24,5 4 2 ESE 1014,8 12 0
14.07.2018 22:00:00 26,0 25,0 8 4 SSO - 10 -
14.07.2018 21:00:00 27,0 26,0 8 4 O - 10 -
14.07.2018 20:00:00 28,8 23,5 15 8 O 1014,5 14 48
14.07.2018 19:00:00 32,0 26,0 11 6 O - 10 -
14.07.2018 18:00:00 32,0 26,0 15 8 O - 10 -
14.07.2018 17:00:00 33,0 25,5 18 10 OSO 1014,7 15 60
14.07.2018 16:00:00 33,0 25,0 22 12 OSO - 10 -
14.07.2018 15:00:00 35,0 26,0 22 12 OSO - 10 -
14.07.2018 14:00:00 34,8 24,4 15 8 O 1015,8 20 60
14.07.2018 13:00:00 34,0 21,0 5 3 ESE - 10 -
14.07.2018 12:00:00 33,0 23,0 5 3 N - 10 -
14.07.2018 11:00:00 31,4 22,7 4 2 NE 1017,2 20 60
14.07.2018 10:00:00 30,0 23,0 9 5 NNE - 10 -
14.07.2018 09:00:00 28,0 22,0 15 8 NE - 10 -
14.07.2018 08:00:00 25,0 22,3 15 8 NE 1017,0 20 48
14.07.2018 07:00:00 21,0 18,0 4 2 NNE - 10 -
14.07.2018 06:00:00 22,0 19,0 5 3 NNE - 10 -
14.07.2018 05:00:00 20,2 18,2 4 2 NNE 1016,8 10 -
14.07.2018 04:00:00 21,0 19,0 0 0 N - 10 -
14.07.2018 03:00:00 22,0 20,0 4 2 NNE - 10 -
14.07.2018 02:00:00 22,0 20,3 2 1 NE 1017,2 10 -
14.07.2018 01:00:00 22,0 20,0 5 3 N - 10 -
14.07.2018 00:00:00 23,0 21,0 0 0 N - 10 -
13.07.2018 23:00:00 23,8 23,0 8 4 ESE 1017,0 10 -
13.07.2018 22:00:00 25,0 24,0 4 2 S - 10 -
13.07.2018 21:00:00 25,0 24,0 5 3 SO - 10 -
13.07.2018 20:00:00 27,2 25,2 11 6 O 1016,7 10 60
13.07.2018 19:00:00 28,0 25,0 11 6 O - 10 -
13.07.2018 18:00:00 29,0 26,0 15 8 O - 10 -
13.07.2018 17:00:00 30,4 25,2 21 11 OSO 1016,7 16 60
13.07.2018 16:00:00 31,0 24,0 15 8 OSO - 10 -
13.07.2018 15:00:00 31,0 23,0 21 11 OSO - 10 -
13.07.2018 14:00:00 31,4 24,0 15 8 SO 1017,4 14 60
13.07.2018 13:00:00 31,0 25,0 13 7 OSO - 10 -
13.07.2018 12:00:00 31,0 26,0 11 6 SSO - 10 -
13.07.2018 11:00:00 29,4 25,0 8 4 OSO 1018,0 12 54
13.07.2018 10:00:00 27,0 24,0 2 1 ESE - 10 -
13.07.2018 09:00:00 27,0 24,0 4 2 NNE - 6 -
13.07.2018 08:00:00 24,4 21,7 4 2 NE 1017,3 5 6
13.07.2018 07:00:00 20,0 18,0 5 3 N - 5 -
13.07.2018 06:00:00 20,0 17,0 4 2 N - 5 -
13.07.2018 05:00:00 20,0 17,4 0 0 N 1017,0 8 -
13.07.2018 04:00:00 20,0 18,0 0 0 N - 10 -
13.07.2018 03:00:00 20,0 19,0 4 2 NNE - 10 -
13.07.2018 02:00:00 20,2 18,5 5 3 NNE 1017,0 10 -
13.07.2018 01:00:00 21,0 20,0 4 2 NNE - 10 -
13.07.2018 00:00:00 22,0 22,0 0 0 N - 10 -
12.07.2018 23:00:00 23,0 22,2 0 0 N 1016,7 10 -
12.07.2018 22:00:00 24,0 22,0 5 3 SSO - 10 -
12.07.2018 21:00:00 25,0 23,0 8 4 OSO - 10 -
12.07.2018 20:00:00 27,0 22,2 11 6 OSO 1015,8 25 30
12.07.2018 19:00:00 28,0 23,0 13 7 SO - 10 -
12.07.2018 18:00:00 28,0 24,0 16 9 SO - 10 -
12.07.2018 17:00:00 28,8 23,5 24 13 SO 1015,8 20 60
12.07.2018 16:00:00 29,0 24,0 21 11 SO - 10 -
12.07.2018 15:00:00 29,0 24,0 22 12 OSO - 10 -
12.07.2018 14:00:00 29,4 22,9 21 11 SO 1016,0 20 60
12.07.2018 13:00:00 29,0 24,0 16 9 SO - 10 -
12.07.2018 12:00:00 29,0 23,0 15 8 OSO - 10 -
12.07.2018 11:00:00 28,2 22,0 15 8 OSO 1016,0 15 48
12.07.2018 10:00:00 27,0 24,0 11 6 SO - 10 -
12.07.2018 09:00:00 26,0 23,0 4 2 SO - 8 -
12.07.2018 08:00:00 23,6 21,1 4 2 NE 1015,2 6 30
12.07.2018 07:00:00 21,0 19,0 4 2 E - 6 -
12.07.2018 06:00:00 21,0 19,0 4 2 ENE - 7 -
12.07.2018 05:00:00 22,0 20,7 4 2 ENE 1015,1 10 -
12.07.2018 04:00:00 22,0 21,0 4 2 ENE - 10 -
12.07.2018 03:00:00 - - - - - - - -
12.07.2018 02:00:00 22,4 21,0 4 2 ENE 1015,1 10 -
12.07.2018 01:00:00 23,0 22,0 8 4 SSE - 10 -
12.07.2018 00:00:00 23,0 22,0 5 3 SE - 10 -
11.07.2018 23:00:00 23,4 22,6 0 0 N 1014,8 12 -
11.07.2018 22:00:00 24,0 23,0 5 3 S - 10 -
11.07.2018 21:00:00 24,0 23,0 8 4 OSO - 10 -
11.07.2018 20:00:00 26,4 23,3 13 7 OSO 1014,2 25 54
11.07.2018 19:00:00 29,0 24,0 18 10 OSO - 10 -
11.07.2018 18:00:00 29,0 25,0 18 10 OSO - 10 -
11.07.2018 17:00:00 29,4 23,8 21 11 OSO 1014,2 25 60
11.07.2018 16:00:00 30,0 23,0 16 9 OSO - 10 -
11.07.2018 15:00:00 30,0 24,0 22 12 SO - 10 -
11.07.2018 14:00:00 29,6 24,3 21 11 OSO 1014,3 25 48
11.07.2018 13:00:00 30,0 24,0 18 10 SO - 10 -
11.07.2018 12:00:00 29,0 23,0 16 9 SO - 10 -
11.07.2018 11:00:00 29,0 23,2 13 7 SO 1014,3 15 60
11.07.2018 10:00:00 28,0 25,0 8 4 SSE - 10 -
11.07.2018 09:00:00 27,0 18,0 5 3 E - 10 -
11.07.2018 08:00:00 23,0 20,0 8 4 E 1014,1 7 -
11.07.2018 07:00:00 21,0 19,0 5 3 E - 5 -
11.07.2018 06:00:00 20,0 18,0 5 3 ENE - 6 -
11.07.2018 05:00:00 20,0 18,3 5 3 NNE 1013,9 15 -
11.07.2018 04:00:00 21,0 19,0 4 2 NNE - 10 -
11.07.2018 03:00:00 21,0 19,0 4 2 NE - 10 -
11.07.2018 02:00:00 21,0 20,2 5 3 E 1014,4 15 -
11.07.2018 01:00:00 22,0 21,0 4 2 NNE - 10 -
11.07.2018 00:00:00 22,0 22,0 0 0 N - 10 -
10.07.2018 23:00:00 23,4 22,6 4 2 S 1014,4 20 -
10.07.2018 22:00:00 24,0 24,0 4 2 S - 10 -
10.07.2018 21:00:00 25,0 24,0 5 3 OSO - 10 -
10.07.2018 20:00:00 26,0 23,9 11 6 O 1013,8 20 48

tt = Temperatura
td = dewpoint
ff = velocità del vento
dd = direzione del vento
ppp = reduced air pressure
vv = visibility
sd = ore di luce

Stazioni seguenti

WeatherPro
AMSI
MeteoEarth